Regional Weather Roundup
Issued by NWS Goodland, KS

Home | Current Version | Previous Version | Text Only | Print | Product List | Glossary On
Versions: 1 2 3 4 5 6 7 8 9 10 11 12 13 14 15 16 17 18 19 20 21 22 23 24 25 26 27 28 29 30 31 32 33 34 35 36 37 38 39 40 41 42 43 44 45 46 47 48 49 50
000
ASUS43 KGLD 060908
RWRGLD

GOODLAND FORECAST AREA HOURLY WEATHER ROUNDUP
NATIONAL WEATHER SERVICE GOODLAND KS
300 AM MDT FRI MAY 06 2016

...OFFICIAL OBSERVATIONS...

CITY           SKY/WX    TMP DP  RH WIND       PRES   REMARKS
GOODLAND KS    CLOUDY    51  45  79 S13       30.01F
HILL CITY KS   CLOUDY    58  45  62 CALM      30.03F
IMPERIAL NEB   CLOUDY    58  46  64 S14       29.98F
MCCOOK NEB     PTCLDY    57  46  66 S8        30.00F
AKRON CO       CLOUDY    52  44  74 SE13      29.98F
BURLINGTON CO  CLOUDY    54  45  71 S16       30.01F
LIMON CO       CLOUDY    45  42  89 SE5       30.02F
$$

...UNOFFICIAL OBSERVATIONS...

CITY           SKY/WX    TMP DP  RH WIND       PRES   REMARKS
COLBY KS       CLEAR     57  48  72 S15       30.03F
LENORA KS        N/A     58  32  37 MISG        N/A
NORTON KS      CLEAR     55  41  58 S7        30.01F
SHARON SPRINGS   N/A     55  47  76 S14         N/A
TRIBUNE KS     CLOUDY    54  48  82 SE12      30.04F
KIT CARSON CO    N/A     55  45  69 MISG        N/A
YUMA CO          N/A     57  46  66 CALM        N/A
$$



USA.gov is the U.S. government's official web portal to all federal, state and local government web resources and services.